START_TIME,STEP,MOV.,M6,t_acc.,M7,t_acc.,M19,t_acc.,H36,t_acc.
1979-08-03 15:00:25.830 ,1,0,0.,12.0,0.,12.0,0.,12.0,0.,12.0
1979-08-03 15:00:37.830 ,1,0,0.,12.0,0.,12.0,0.,12.0,0.,12.0
1979-08-03 15:00:49.830 ,2,1,0.,12.0,0.,12.0,0.,12.0,0.,12.0
1979-08-03 15:01:01.830 ,2,1,0.,12.0,0.,12.0,0.,12.0,0.,12.0
1979-08-03 15:01:13.830 ,2,0,0.,12.0,0.,12.0,0.,12.0,0.,12.0
1979-08-03 15:01:25.830 ,2,0,0.,12.0,0.,12.0,0.,12.0,0.,12.0
1979-08-03 15:01:37.830 ,3,1,0.,12.0,0.,12.0,0.,12.0,0.,12.0
1979-08-03 15:01:49.830 ,3,1,0.,12.0,0.,12.0,0.,12.0,0.,12.0
1979-08-03 15:02:01.830 ,3,0,0.,12.0,0.,12.0,0.,12.0,0.,12.0
1979-08-03 15:02:13.830 ,3,0,0.,12.0,0.,12.0,0.,12.0,0.,12.0
1979-08-03 15:02:25.830 ,4,1,0.,12.0,0.,12.0,0.,12.0,0.,12.0
1979-08-03 15:02:37.830 ,4,1,0.,12.0,0.,12.0,0.,12.0,0.,12.0
1979-08-03 15:02:49.830 ,4,0,0.,12.0,0.,12.0,0.,12.0,0.,12.0
1979-08-03 15:03:01.830 ,4,0,0.,12.0,0.,12.0,0.,12.0,0.,12.0
1979-08-03 15:03:13.830 ,5,1,0.,12.0,0.,12.0,0.,12.0,0.,12.0
1979-08-03 15:03:25.830 ,5,1,0.,12.0,0.,12.0,0.,12.0,0.,12.0
1979-08-03 15:03:37.830 ,5,0,0.,12.0,0.,12.0,0.,12.0,0.,12.0
1979-08-03 15:03:49.830 ,5,0,0.,12.0,0.,12.0,0.,12.0,0.,12.0
1979-08-03 15:04:01.830 ,6,1,0.,12.0,0.,12.0,0.,12.0,0.,12.0
1979-08-03 15:04:13.830 ,6,1,0.,12.0,0.,12.0,0.,12.0,0.,12.0
1979-08-03 15:04:25.830 ,6,0,0.,12.0,0.,12.0,0.,12.0,0.,12.0
1979-08-03 15:04:37.830 ,6,0,0.,12.0,0.,12.0,0.,12.0,0.,12.0
1979-08-03 15:04:49.830 ,7,1,0.,12.0,0.,12.0,0.,12.0,0.,12.0
1979-08-03 15:05:01.830 ,7,1,0.,12.0,0.,12.0,0.,12.0,0.,12.0
1979-08-03 15:05:13.830 ,7,0,0.,12.0,0.,12.0,0.,12.0,0.,12.0
1979-08-03 15:05:25.830 ,7,0,0.,12.0,0.,12.0,0.,12.0,0.,12.0
1979-08-03 15:05:37.830 ,7,1,0.,12.0,0.,12.0,0.,12.0,0.,12.0
1979-08-03 15:05:49.830 ,7,1,0.,12.0,0.,12.0,0.,12.0,0.,12.0
1979-08-03 15:06:01.830 ,7,0,0.,12.0,0.,12.0,0.,12.0,0.,12.0
1979-08-03 15:06:13.830 ,7,0,0.,12.0,0.,12.0,0.,12.0,0.,12.0
1979-08-03 15:06:25.830 ,6,1,0.,12.0,0.,12.0,0.,12.0,0.,12.0
1979-08-03 15:06:37.830 ,6,1,0.,12.0,0.,12.0,0.,12.0,0.,12.0
1979-08-03 15:06:49.830 ,6,0,0.,12.0,0.,12.0,0.,12.0,0.,12.0
1979-08-03 15:07:01.830 ,6,0,0.,12.0,0.,12.0,0.,12.0,0.,12.0
1979-08-03 15:07:13.830 ,5,1,0.,12.0,0.,12.0,0.,12.0,0.,12.0
1979-08-03 15:07:25.830 ,5,1,0.,12.0,0.,12.0,0.,12.0,0.,12.0
1979-08-03 15:07:37.830 ,5,0,0.,12.0,0.,12.0,0.,12.0,0.,12.0
1979-08-03 15:07:49.830 ,5,0,0.,12.0,0.,12.0,0.,12.0,0.,12.0
1979-08-03 15:08:01.830 ,4,1,0.,12.0,0.,12.0,0.,12.0,0.,12.0
1979-08-03 15:08:13.830 ,4,1,0.,12.0,0.,12.0,0.,12.0,0.,12.0
1979-08-03 15:08:25.830 ,4,0,0.,12.0,0.,12.0,0.,12.0,0.,12.0
1979-08-03 15:08:37.830 ,4,0,0.,12.0,0.,12.0,0.,12.0,0.,12.0
1979-08-03 15:08:49.830 ,3,1,0.,12.0,0.,12.0,0.,12.0,0.,12.0
1979-08-03 15:09:01.830 ,3,1,0.,12.0,0.,12.0,0.,12.0,0.,12.0
1979-08-03 15:09:13.830 ,3,0,0.,12.0,0.,12.0,0.,12.0,0.,12.0
1979-08-03 15:09:25.830 ,3,0,0.,12.0,0.,12.0,0.,12.0,0.,12.0
1979-08-03 15:09:37.830 ,2,1,0.,12.0,0.,12.0,0.,12.0,0.,12.0
1979-08-03 15:09:49.830 ,2,1,0.,12.0,0.,12.0,0.,12.0,0.,12.0
1979-08-03 15:10:01.830 ,2,0,0.,12.0,0.,12.0,0.,12.0,0.,12.0
1979-08-03 15:10:13.830 ,2,0,0.,12.0,0.,12.0,0.,12.0,0.,12.0
1979-08-03 15:10:25.830 ,1,1,0.,12.0,0.,12.0,0.,12.0,0.,12.0
1979-08-03 15:10:37.830 ,1,1,0.,12.0,0.,12.0,0.,12.0,0.,12.0
1979-08-03 15:10:49.830 ,1,0,0.,12.0,0.,12.0,0.,12.0,0.,12.0
1979-08-03 15:11:01.830 ,1,0,0.,12.0,0.,12.0,0.,12.0,0.,12.0
1979-08-03 15:11:13.830 ,0,1,0.,12.0,0.,12.0,0.,12.0,0.,12.0
1979-08-03 15:11:25.830 ,0,1,0.,12.0,0.,12.0,0.,12.0,0.,12.0
1979-08-03 15:11:37.830 ,0,0,0.,12.0,0.,12.0,0.,12.0,0.,12.0
1979-08-03 15:11:49.830 ,0,0,0.,12.0,0.,12.0,0.,12.0,0.,12.0
1979-08-03 15:12:01.830 ,0,1,0.,12.0,0.,12.0,0.,12.0,0.,12.0
1979-08-03 15:12:13.830 ,0,1,0.,12.0,0.,12.0,0.,12.0,0.,12.0
1979-08-03 15:12:25.830 ,0,0,0.,12.0,0.,12.0,0.,12.0,0.,12.0
1979-08-03 15:12:37.830 ,0,0,0.,12.0,0.,12.0,0.,12.0,0.,12.0
1979-08-03 15:12:49.830 ,1,1,0.,12.0,0.,12.0,0.,12.0,0.,12.0
1979-08-03 15:13:01.830 ,1,1,0.,12.0,0.,12.0,0.,12.0,0.,12.0
1979-08-03 15:13:13.830 ,1,0,0.,12.0,0.,12.0,0.,12.0,1.,12.0
1979-08-03 15:13:25.830 ,1,0,0.,12.0,0.,12.0,0.,12.0,0.,12.0
1979-08-03 15:13:37.830 ,2,1,0.,12.0,0.,12.0,0.,12.0,0.,12.0
1979-08-03 15:13:49.830 ,2,1,0.,12.0,0.,12.0,0.,12.0,0.,12.0
1979-08-03 15:14:01.830 ,2,0,0.,12.0,0.,12.0,0.,12.0,0.,12.0
1979-08-03 15:14:13.830 ,2,0,0.,12.0,0.,12.0,0.,12.0,0.,12.0
1979-08-03 15:14:25.830 ,3,1,0.,12.0,0.,12.0,0.,12.0,0.,12.0
1979-08-03 15:14:37.830 ,3,1,0.,12.0,0.,12.0,0.,12.0,0.,12.0
1979-08-03 15:14:49.830 ,3,0,0.,12.0,0.,12.0,0.,12.0,0.,12.0
1979-08-03 15:15:01.830 ,3,0,0.,12.0,0.,12.0,0.,12.0,0.,12.0
1979-08-03 15:15:13.830 ,4,1,0.,12.0,0.,12.0,0.,12.0,0.,12.0
1979-08-03 15:15:25.830 ,4,1,0.,12.0,0.,12.0,0.,12.0,0.,12.0
1979-08-03 15:15:37.830 ,4,0,0.,12.0,0.,12.0,0.,12.0,0.,12.0
1979-08-03 15:15:49.830 ,4,0,0.,12.0,0.,12.0,0.,12.0,0.,12.0
1979-08-03 15:16:01.830 ,5,1,0.,12.0,0.,12.0,0.,12.0,0.,12.0
1979-08-03 15:16:13.830 ,5,1,0.,12.0,0.,12.0,0.,12.0,0.,12.0
1979-08-03 15:16:25.830 ,5,0,0.,12.0,0.,12.0,0.,12.0,0.,12.0
1979-08-03 15:16:37.830 ,5,0,0.,12.0,0.,12.0,0.,12.0,0.,12.0
1979-08-03 15:16:49.830 ,6,1,0.,12.0,0.,12.0,0.,12.0,0.,12.0
1979-08-03 15:17:01.830 ,6,1,0.,12.0,0.,12.0,0.,12.0,0.,12.0
1979-08-03 15:17:13.830 ,6,0,0.,12.0,0.,12.0,0.,12.0,0.,12.0
1979-08-03 15:17:25.830 ,6,0,0.,12.0,0.,12.0,0.,12.0,0.,12.0
1979-08-03 15:17:37.830 ,7,1,0.,12.0,0.,12.0,0.,12.0,0.,12.0
1979-08-03 15:17:49.830 ,7,1,0.,12.0,0.,12.0,0.,12.0,0.,12.0
1979-08-03 15:18:01.830 ,7,0,0.,12.0,0.,12.0,0.,12.0,0.,12.0
1979-08-03 15:18:13.830 ,7,0,0.,12.0,0.,12.0,0.,12.0,0.,12.0
1979-08-03 15:18:25.830 ,7,1,0.,12.0,0.,12.0,0.,12.0,0.,12.0
1979-08-03 15:18:37.830 ,7,1,0.,12.0,0.,12.0,0.,12.0,0.,12.0
1979-08-03 15:18:49.830 ,7,0,0.,12.0,0.,12.0,0.,12.0,0.,12.0
1979-08-03 15:19:01.830 ,7,0,0.,12.0,0.,12.0,0.,12.0,0.,12.0
1979-08-03 15:19:13.830 ,6,1,0.,12.0,0.,12.0,0.,12.0,0.,12.0
1979-08-03 15:19:25.830 ,6,1,0.,12.0,0.,12.0,0.,12.0,0.,12.0
1979-08-03 15:19:37.830 ,6,0,0.,12.0,0.,12.0,0.,12.0,0.,12.0
1979-08-03 15:19:49.830 ,6,0,0.,12.0,0.,12.0,0.,12.0,0.,12.0
1979-08-03 15:20:01.830 ,5,1,0.,12.0,0.,12.0,0.,12.0,0.,12.0
1979-08-03 15:20:13.830 ,5,1,0.,12.0,0.,12.0,0.,12.0,0.,12.0
1979-08-03 15:20:25.830 ,5,0,0.,12.0,0.,12.0,0.,12.0,0.,12.0
1979-08-03 15:20:37.830 ,5,0,0.,12.0,0.,12.0,0.,12.0,0.,12.0
1979-08-03 15:20:49.830 ,4,1,0.,12.0,0.,12.0,0.,12.0,0.,12.0
1979-08-03 15:21:01.830 ,4,1,0.,12.0,0.,12.0,0.,12.0,0.,12.0
1979-08-03 15:21:13.830 ,4,0,0.,12.0,0.,12.0,0.,12.0,0.,12.0
1979-08-03 15:21:25.830 ,4,0,0.,12.0,0.,12.0,0.,12.0,0.,12.0
1979-08-03 15:21:37.830 ,3,1,0.,12.0,0.,12.0,0.,12.0,0.,12.0
1979-08-03 15:21:49.830 ,3,1,0.,12.0,0.,12.0,0.,12.0,0.,12.0
1979-08-03 15:22:01.830 ,3,0,0.,12.0,0.,12.0,0.,12.0,0.,12.0
1979-08-03 15:22:13.830 ,3,0,0.,12.0,0.,12.0,0.,12.0,0.,12.0
1979-08-03 15:22:25.830 ,2,1,0.,12.0,0.,12.0,0.,12.0,0.,12.0
1979-08-03 15:22:37.830 ,2,1,0.,12.0,0.,12.0,0.,12.0,0.,12.0
1979-08-03 15:22:49.830 ,2,0,0.,12.0,0.,12.0,0.,12.0,0.,12.0
1979-08-03 15:23:01.830 ,2,0,0.,12.0,0.,12.0,0.,12.0,0.,12.0
1979-08-03 15:23:13.830 ,1,1,0.,12.0,0.,12.0,0.,12.0,0.,12.0
1979-08-03 15:23:25.830 ,1,1,0.,12.0,0.,12.0,0.,12.0,0.,12.0
1979-08-03 15:23:37.830 ,1,0,0.,12.0,0.,12.0,0.,12.0,0.,12.0
1979-08-03 15:23:49.830 ,1,0,0.,12.0,0.,12.0,0.,12.0,0.,12.0
1979-08-03 15:24:01.830 ,0,1,0.,12.0,0.,12.0,0.,12.0,0.,12.0
1979-08-03 15:24:13.830 ,0,1,0.,12.0,0.,12.0,0.,12.0,0.,12.0
1979-08-03 15:24:25.830 ,0,0,0.,12.0,0.,12.0,0.,12.0,0.,12.0
1979-08-03 15:24:37.830 ,0,0,0.,12.0,0.,12.0,0.,12.0,0.,12.0
1979-08-03 15:24:49.830 ,0,1,0.,12.0,0.,12.0,0.,12.0,0.,12.0
1979-08-03 15:25:01.830 ,0,1,0.,12.0,0.,12.0,0.,12.0,0.,12.0
1979-08-03 15:25:13.830 ,0,0,0.,12.0,0.,12.0,0.,12.0,0.,12.0
1979-08-03 15:25:25.830 ,0,0,0.,12.0,0.,12.0,0.,12.0,0.,12.0
1979-08-03 15:25:37.830 ,1,1,0.,12.0,0.,12.0,0.,12.0,0.,12.0
1979-08-03 15:25:49.830 ,1,1,0.,12.0,0.,12.0,0.,12.0,0.,12.0
1979-08-03 15:26:01.830 ,1,0,0.,12.0,0.,12.0,0.,12.0,0.,12.0
1979-08-03 15:26:13.830 ,1,0,0.,12.0,0.,12.0,0.,12.0,0.,12.0
1979-08-03 15:26:25.830 ,2,1,0.,12.0,0.,12.0,0.,12.0,0.,12.0
1979-08-03 15:26:37.830 ,2,1,0.,12.0,0.,12.0,0.,12.0,0.,12.0
1979-08-03 15:26:49.830 ,2,0,0.,12.0,0.,12.0,0.,12.0,0.,12.0
1979-08-03 15:27:01.830 ,2,0,0.,12.0,0.,12.0,0.,12.0,0.,12.0
1979-08-03 15:27:13.830 ,3,1,0.,12.0,0.,12.0,0.,12.0,0.,12.0
1979-08-03 15:27:25.830 ,3,1,0.,12.0,0.,12.0,0.,12.0,0.,12.0
1979-08-03 15:27:37.830 ,3,0,0.,12.0,0.,12.0,0.,12.0,0.,12.0
1979-08-03 15:27:49.830 ,3,0,0.,12.0,0.,12.0,0.,12.0,0.,12.0
1979-08-03 15:28:01.830 ,4,1,0.,12.0,0.,12.0,0.,12.0,0.,12.0
1979-08-03 15:28:13.830 ,4,1,0.,12.0,0.,12.0,0.,12.0,0.,12.0
1979-08-03 15:28:25.830 ,4,0,0.,12.0,0.,12.0,0.,12.0,0.,12.0
1979-08-03 15:28:37.830 ,4,0,0.,12.0,0.,12.0,0.,12.0,0.,12.0
1979-08-03 15:28:49.830 ,5,1,0.,12.0,0.,12.0,0.,12.0,0.,12.0
1979-08-03 15:29:01.830 ,5,1,0.,12.0,0.,12.0,0.,12.0,0.,12.0
1979-08-03 15:29:13.830 ,5,0,0.,12.0,0.,12.0,0.,12.0,0.,12.0
1979-08-03 15:29:25.830 ,5,0,0.,12.0,0.,12.0,0.,12.0,0.,12.0
1979-08-03 15:29:37.830 ,6,1,0.,12.0,0.,12.0,0.,12.0,0.,12.0
1979-08-03 15:29:49.830 ,6,1,0.,12.0,0.,12.0,0.,12.0,0.,12.0
1979-08-03 15:30:01.830 ,6,0,0.,12.0,0.,12.0,0.,12.0,0.,12.0
1979-08-03 15:30:13.830 ,6,0,0.,12.0,0.,12.0,0.,12.0,0.,12.0
1979-08-03 15:30:25.830 ,7,0,0.,12.0,0.,12.0,0.,12.0,0.,12.0
1979-08-03 15:30:37.830 ,7,0,0.,12.0,0.,12.0,0.,12.0,0.,12.0
1979-08-03 15:30:49.830 ,7,0,0.,12.0,0.,12.0,0.,12.0,0.,12.0
1979-08-03 15:31:01.830 ,7,0,0.,12.0,0.,12.0,0.,12.0,0.,12.0
1979-08-03 15:31:13.830 ,4,1,0.,12.0,0.,12.0,0.,12.0,0.,12.0
1979-08-03 15:31:25.830 ,4,1,0.,12.0,0.,12.0,0.,12.0,0.,12.0
1979-08-03 15:31:37.830 ,0,1,0.,12.0,0.,12.0,0.,12.0,0.,12.0
1979-08-03 15:31:49.830 ,0,1,0.,12.0,0.,12.0,0.,12.0,0.,12.0
1979-08-03 15:32:01.830 ,3,1,0.,12.0,0.,12.0,0.,12.0,0.,12.0
1979-08-03 15:32:13.830 ,3,1,0.,12.0,0.,12.0,0.,12.0,0.,12.0
1979-08-03 15:32:25.830 ,7,1,0.,12.0,0.,12.0,0.,12.0,0.,12.0
1979-08-03 15:32:37.830 ,7,1,0.,12.0,0.,12.0,0.,12.0,0.,12.0
1979-08-03 15:32:49.830 ,4,1,0.,12.0,0.,12.0,0.,12.0,0.,12.0
1979-08-03 15:33:01.830 ,4,1,0.,12.0,0.,12.0,0.,12.0,0.,12.0
1979-08-03 15:33:13.830 ,0,1,0.,12.0,0.,12.0,0.,12.0,0.,12.0
1979-08-03 15:33:25.830 ,0,1,0.,12.0,0.,12.0,0.,12.0,0.,12.0
1979-08-03 15:47:18.030 ,0,0,0.,12.0,0.,12.0,0.,12.0,0.,12.0
1979-08-03 15:47:30.030 ,0,0,0.,12.0,0.,12.0,0.,12.0,0.,12.0
1979-08-03 15:47:37.830 ,0,0,0.,12.0,0.,12.0,0.,12.0,0.,12.0
1979-08-03 15:47:49.830 ,0,0,0.,12.0,0.,12.0,0.,12.0,0.,12.0
1979-08-03 15:48:01.830 ,1,1,0.,12.0,0.,12.0,0.,12.0,0.,12.0
1979-08-03 15:48:13.830 ,1,1,0.,12.0,0.,12.0,0.,12.0,0.,12.0
1979-08-03 15:48:25.830 ,1,0,0.,12.0,0.,12.0,0.,12.0,0.,12.0
1979-08-03 15:48:37.830 ,1,0,0.,12.0,0.,12.0,0.,12.0,0.,12.0
1979-08-03 15:48:49.830 ,2,1,0.,12.0,0.,12.0,0.,12.0,0.,12.0
1979-08-03 15:49:01.830 ,2,1,0.,12.0,0.,12.0,0.,12.0,0.,12.0
1979-08-03 15:49:13.830 ,2,0,0.,12.0,0.,12.0,0.,12.0,0.,12.0
1979-08-03 15:49:25.830 ,2,0,0.,12.0,0.,12.0,0.,12.0,0.,12.0
1979-08-03 15:49:37.830 ,3,1,0.,12.0,0.,12.0,0.,12.0,0.,12.0
1979-08-03 15:49:49.830 ,3,1,0.,12.0,0.,12.0,0.,12.0,0.,12.0
1979-08-03 15:50:01.830 ,3,0,0.,12.0,0.,12.0,0.,12.0,0.,12.0
1979-08-03 15:50:13.830 ,3,0,0.,12.0,0.,12.0,0.,12.0,0.,12.0
1979-08-03 15:50:25.830 ,4,1,0.,12.0,0.,12.0,0.,12.0,0.,12.0
1979-08-03 15:50:37.830 ,4,1,0.,12.0,0.,12.0,0.,12.0,0.,12.0
1979-08-03 15:50:49.830 ,4,0,0.,12.0,0.,12.0,0.,12.0,0.,12.0
1979-08-03 15:51:01.830 ,4,0,0.,12.0,0.,12.0,0.,12.0,0.,12.0
1979-08-03 15:51:13.830 ,5,1,0.,12.0,0.,12.0,0.,12.0,0.,12.0
1979-08-03 15:51:25.830 ,5,1,0.,12.0,0.,12.0,0.,12.0,0.,12.0
1979-08-03 15:51:37.830 ,5,0,0.,12.0,0.,12.0,0.,12.0,0.,12.0
1979-08-03 15:51:49.830 ,5,0,0.,12.0,0.,12.0,0.,12.0,0.,12.0
1979-08-03 15:52:01.830 ,6,1,0.,12.0,0.,12.0,0.,12.0,0.,12.0
1979-08-03 15:52:13.830 ,6,1,0.,12.0,0.,12.0,0.,12.0,0.,12.0
1979-08-03 15:52:25.830 ,6,0,0.,12.0,0.,12.0,0.,12.0,0.,12.0
1979-08-03 15:52:37.830 ,6,0,0.,12.0,0.,12.0,0.,12.0,0.,12.0
1979-08-03 15:52:49.830 ,7,1,0.,12.0,0.,12.0,0.,12.0,0.,12.0
1979-08-03 15:53:01.830 ,7,1,0.,12.0,0.,12.0,0.,12.0,0.,12.0
1979-08-03 15:53:13.830 ,7,0,0.,12.0,0.,12.0,0.,12.0,0.,12.0
1979-08-03 15:53:25.830 ,7,0,0.,12.0,0.,12.0,0.,12.0,0.,12.0
1979-08-03 15:53:37.830 ,7,1,0.,12.0,0.,12.0,0.,12.0,0.,12.0
1979-08-03 15:53:49.830 ,7,1,0.,12.0,0.,12.0,0.,12.0,0.,12.0
1979-08-03 15:54:01.830 ,7,0,0.,12.0,0.,12.0,0.,12.0,0.,12.0
1979-08-03 15:54:13.830 ,7,0,0.,12.0,0.,12.0,0.,12.0,0.,12.0
1979-08-03 15:54:25.830 ,6,1,0.,12.0,0.,12.0,0.,12.0,0.,12.0
1979-08-03 15:54:37.830 ,6,1,0.,12.0,0.,12.0,0.,12.0,0.,12.0
1979-08-03 15:54:49.830 ,6,0,0.,12.0,0.,12.0,0.,12.0,0.,12.0
1979-08-03 15:55:01.830 ,6,0,0.,12.0,0.,12.0,0.,12.0,0.,12.0
1979-08-03 15:55:13.830 ,5,1,0.,12.0,0.,12.0,0.,12.0,0.,12.0
1979-08-03 15:55:25.830 ,5,1,0.,12.0,0.,12.0,0.,12.0,0.,12.0
1979-08-03 15:55:37.830 ,5,0,0.,12.0,0.,12.0,0.,12.0,0.,12.0
1979-08-03 15:55:49.830 ,5,0,0.,12.0,0.,12.0,0.,12.0,0.,12.0
1979-08-03 15:56:01.830 ,4,1,0.,12.0,0.,12.0,0.,12.0,0.,12.0
1979-08-03 15:56:13.830 ,4,1,0.,12.0,0.,12.0,0.,12.0,0.,12.0
1979-08-03 15:56:25.830 ,4,0,0.,12.0,0.,12.0,0.,12.0,0.,12.0
1979-08-03 15:56:37.830 ,4,0,0.,12.0,0.,12.0,0.,12.0,0.,12.0
1979-08-03 15:56:49.830 ,3,1,0.,12.0,0.,12.0,0.,12.0,0.,12.0
1979-08-03 15:57:01.830 ,3,1,0.,12.0,0.,12.0,0.,12.0,0.,12.0
1979-08-03 15:57:13.830 ,3,0,0.,12.0,0.,12.0,0.,12.0,0.,12.0
1979-08-03 15:57:25.830 ,3,0,0.,12.0,0.,12.0,0.,12.0,0.,12.0
1979-08-03 15:57:37.830 ,2,1,0.,12.0,0.,12.0,0.,12.0,0.,12.0
1979-08-03 15:57:49.830 ,2,1,0.,12.0,0.,12.0,0.,12.0,0.,12.0
1979-08-03 15:58:01.830 ,2,0,0.,12.0,0.,12.0,0.,12.0,0.,12.0
1979-08-03 15:58:13.830 ,2,0,0.,12.0,0.,12.0,0.,12.0,0.,12.0
1979-08-03 15:58:25.830 ,1,1,0.,12.0,0.,12.0,0.,12.0,0.,12.0
1979-08-03 15:58:37.830 ,1,1,0.,12.0,0.,12.0,0.,12.0,0.,12.0
1979-08-03 15:58:49.830 ,1,0,0.,12.0,0.,12.0,0.,12.0,0.,12.0
1979-08-03 15:59:01.830 ,1,0,0.,12.0,0.,12.0,0.,12.0,0.,12.0
1979-08-03 15:59:13.830 ,0,1,0.,12.0,0.,12.0,0.,12.0,0.,12.0
1979-08-03 15:59:25.830 ,0,1,0.,12.0,0.,12.0,0.,12.0,0.,12.0
1979-08-03 15:59:37.830 ,0,0,0.,12.0,0.,12.0,0.,12.0,0.,12.0
1979-08-03 15:59:49.830 ,0,0,0.,12.0,0.,12.0,0.,12.0,0.,12.0
1979-08-03 16:00:01.830 ,0,1,0.,12.0,0.,12.0,0.,12.0,0.,12.0
1979-08-03 16:00:13.830 ,0,1,0.,12.0,0.,12.0,0.,12.0,0.,12.0
1979-08-03 16:00:25.830 ,0,0,0.,12.0,0.,12.0,0.,12.0,1.,12.0
1979-08-03 16:00:37.830 ,0,0,0.,12.0,0.,12.0,0.,12.0,0.,12.0
1979-08-03 16:00:49.830 ,1,1,0.,12.0,0.,12.0,0.,12.0,0.,12.0
1979-08-03 16:01:01.830 ,1,1,0.,12.0,0.,12.0,0.,12.0,0.,12.0
1979-08-03 16:01:13.830 ,1,0,0.,12.0,0.,12.0,0.,12.0,0.,12.0
1979-08-03 16:01:25.830 ,1,0,1.,12.0,0.,12.0,0.,12.0,0.,12.0
1979-08-03 16:01:37.830 ,2,1,0.,12.0,0.,12.0,0.,12.0,0.,12.0
1979-08-03 16:01:49.830 ,2,1,0.,12.0,0.,12.0,0.,12.0,0.,12.0
1979-08-03 16:02:01.830 ,2,0,0.,12.0,0.,12.0,0.,12.0,0.,12.0
1979-08-03 16:02:13.830 ,2,0,0.,12.0,0.,12.0,0.,12.0,0.,12.0
1979-08-03 16:02:25.830 ,3,1,0.,12.0,0.,12.0,0.,12.0,0.,12.0
1979-08-03 16:02:37.830 ,3,1,0.,12.0,0.,12.0,0.,12.0,0.,12.0
1979-08-03 16:02:49.830 ,3,0,0.,12.0,0.,12.0,0.,12.0,0.,12.0
1979-08-03 16:03:01.830 ,3,0,0.,12.0,0.,12.0,0.,12.0,0.,12.0
1979-08-03 16:03:13.830 ,4,1,0.,12.0,0.,12.0,0.,12.0,0.,12.0
1979-08-03 16:03:25.830 ,4,1,0.,12.0,0.,12.0,0.,12.0,0.,12.0
1979-08-03 16:03:37.830 ,4,0,0.,12.0,0.,12.0,0.,12.0,0.,12.0
1979-08-03 16:03:49.830 ,4,0,0.,12.0,0.,12.0,0.,12.0,0.,12.0
1979-08-03 16:04:01.830 ,5,1,0.,12.0,0.,12.0,0.,12.0,0.,12.0
1979-08-03 16:04:13.830 ,5,1,0.,12.0,0.,12.0,0.,12.0,0.,12.0
1979-08-03 16:04:25.830 ,5,0,0.,12.0,0.,12.0,0.,12.0,0.,12.0
1979-08-03 16:04:37.830 ,5,0,0.,12.0,0.,12.0,0.,12.0,0.,12.0
1979-08-03 16:04:49.830 ,6,1,0.,12.0,0.,12.0,0.,12.0,0.,12.0
1979-08-03 16:05:01.830 ,6,1,0.,12.0,0.,12.0,0.,12.0,0.,12.0
1979-08-03 16:05:13.830 ,6,0,0.,12.0,0.,12.0,0.,12.0,0.,12.0
1979-08-03 16:05:25.830 ,6,0,0.,12.0,0.,12.0,0.,12.0,0.,12.0
1979-08-03 16:05:37.830 ,7,1,0.,12.0,0.,12.0,0.,12.0,0.,12.0
1979-08-03 16:05:49.830 ,7,1,0.,12.0,0.,12.0,0.,12.0,0.,12.0
1979-08-03 16:06:01.830 ,7,0,0.,12.0,0.,12.0,0.,12.0,0.,12.0
1979-08-03 16:06:13.830 ,7,0,0.,12.0,0.,12.0,0.,12.0,0.,12.0
1979-08-03 16:06:25.830 ,7,1,0.,12.0,0.,12.0,0.,12.0,0.,12.0
1979-08-03 16:06:37.830 ,7,1,0.,12.0,0.,12.0,0.,12.0,0.,12.0
1979-08-03 16:06:49.830 ,7,0,0.,12.0,0.,12.0,0.,12.0,0.,12.0
1979-08-03 16:07:01.830 ,7,0,0.,12.0,0.,12.0,0.,12.0,0.,12.0
1979-08-03 16:07:13.830 ,6,1,0.,12.0,0.,12.0,0.,12.0,0.,12.0
1979-08-03 16:07:25.830 ,6,1,0.,12.0,0.,12.0,0.,12.0,0.,12.0
1979-08-03 16:07:37.830 ,6,0,0.,12.0,0.,12.0,0.,12.0,0.,12.0
1979-08-03 16:07:49.830 ,6,0,0.,12.0,0.,12.0,0.,12.0,0.,12.0
1979-08-03 16:08:01.830 ,5,1,0.,12.0,0.,12.0,0.,12.0,0.,12.0
1979-08-03 16:08:13.830 ,5,1,0.,12.0,0.,12.0,0.,12.0,0.,12.0
1979-08-03 16:08:25.830 ,5,0,0.,12.0,0.,12.0,0.,12.0,0.,12.0
1979-08-03 16:08:37.830 ,5,0,0.,12.0,0.,12.0,0.,12.0,0.,12.0
1979-08-03 16:08:49.830 ,4,1,0.,12.0,0.,12.0,0.,12.0,0.,12.0
1979-08-03 16:09:01.830 ,4,1,0.,12.0,0.,12.0,0.,12.0,0.,12.0
1979-08-03 16:09:13.830 ,4,0,0.,12.0,0.,12.0,0.,12.0,0.,12.0
1979-08-03 16:09:25.830 ,4,0,0.,12.0,0.,12.0,0.,12.0,0.,12.0
1979-08-03 16:09:37.830 ,3,1,0.,12.0,0.,12.0,0.,12.0,0.,12.0
1979-08-03 16:09:49.830 ,3,1,0.,12.0,0.,12.0,0.,12.0,0.,12.0
1979-08-03 16:10:01.830 ,3,0,0.,12.0,0.,12.0,0.,12.0,0.,12.0
1979-08-03 16:10:13.830 ,3,0,0.,12.0,0.,12.0,0.,12.0,0.,12.0
1979-08-03 16:10:25.830 ,2,1,0.,12.0,0.,12.0,0.,12.0,0.,12.0
1979-08-03 16:10:37.830 ,2,1,0.,12.0,0.,12.0,0.,12.0,0.,12.0
1979-08-03 16:10:49.830 ,2,0,0.,12.0,0.,12.0,0.,12.0,0.,12.0
1979-08-03 16:11:01.830 ,2,0,0.,12.0,0.,12.0,0.,12.0,0.,12.0
1979-08-03 16:11:13.830 ,1,1,0.,12.0,0.,12.0,0.,12.0,0.,12.0
1979-08-03 16:11:25.830 ,1,1,0.,12.0,0.,12.0,0.,12.0,0.,12.0
1979-08-03 16:11:37.830 ,1,0,0.,12.0,0.,12.0,0.,12.0,0.,12.0
1979-08-03 16:11:49.830 ,1,0,0.,12.0,0.,12.0,0.,12.0,0.,12.0
1979-08-03 16:12:01.830 ,0,1,0.,12.0,0.,12.0,0.,12.0,1.,12.0
1979-08-03 16:12:13.830 ,0,1,0.,12.0,0.,12.0,0.,12.0,0.,12.0
1979-08-03 16:12:25.830 ,0,0,1.,12.0,0.,12.0,0.,12.0,0.,12.0
1979-08-03 16:12:37.830 ,0,0,0.,12.0,0.,12.0,0.,12.0,0.,12.0
1979-08-03 16:12:49.830 ,0,1,0.,12.0,0.,12.0,0.,12.0,0.,12.0
1979-08-03 16:13:01.830 ,0,1,0.,12.0,0.,12.0,0.,12.0,0.,12.0
1979-08-03 16:13:13.830 ,0,0,0.,12.0,0.,12.0,0.,12.0,1.,12.0
1979-08-03 16:13:25.830 ,0,0,0.,12.0,0.,12.0,0.,12.0,0.,12.0
1979-08-03 16:13:37.830 ,1,1,0.,12.0,0.,12.0,0.,12.0,0.,12.0
1979-08-03 16:13:49.830 ,1,1,0.,12.0,0.,12.0,0.,12.0,0.,12.0
1979-08-03 16:14:01.830 ,1,0,0.,12.0,0.,12.0,0.,12.0,0.,12.0
1979-08-03 16:14:13.830 ,1,0,0.,12.0,0.,12.0,0.,12.0,0.,12.0
1979-08-03 16:14:25.830 ,2,1,0.,12.0,0.,12.0,0.,12.0,0.,12.0
1979-08-03 16:14:37.830 ,2,1,0.,12.0,0.,12.0,0.,12.0,0.,12.0
1979-08-03 16:14:49.830 ,2,0,0.,12.0,0.,12.0,0.,12.0,0.,12.0
1979-08-03 16:15:01.830 ,2,0,0.,12.0,0.,12.0,0.,12.0,0.,12.0
1979-08-03 16:15:13.830 ,3,1,0.,12.0,0.,12.0,0.,12.0,0.,12.0
1979-08-03 16:15:25.830 ,3,1,0.,12.0,0.,12.0,0.,12.0,0.,12.0
1979-08-03 16:15:37.830 ,3,0,0.,12.0,0.,12.0,0.,12.0,0.,12.0
1979-08-03 16:15:49.830 ,3,0,0.,12.0,0.,12.0,0.,12.0,0.,12.0
1979-08-03 16:16:01.830 ,4,1,0.,12.0,0.,12.0,0.,12.0,0.,12.0
1979-08-03 16:16:13.830 ,4,1,0.,12.0,0.,12.0,0.,12.0,0.,12.0
1979-08-03 16:16:25.830 ,4,0,0.,12.0,0.,12.0,0.,12.0,0.,12.0
1979-08-03 16:16:37.830 ,4,0,0.,12.0,0.,12.0,0.,12.0,0.,12.0
1979-08-03 16:16:49.830 ,5,1,0.,12.0,0.,12.0,0.,12.0,0.,12.0
1979-08-03 16:17:01.830 ,5,1,0.,12.0,0.,12.0,0.,12.0,0.,12.0
1979-08-03 16:17:13.830 ,5,0,0.,12.0,0.,12.0,0.,12.0,0.,12.0
1979-08-03 16:17:25.830 ,5,0,0.,12.0,0.,12.0,0.,12.0,0.,12.0
1979-08-03 16:17:37.830 ,6,1,0.,12.0,0.,12.0,0.,12.0,0.,12.0
1979-08-03 16:17:49.830 ,6,1,0.,12.0,0.,12.0,0.,12.0,0.,12.0
1979-08-03 16:18:01.830 ,6,0,0.,12.0,0.,12.0,0.,12.0,0.,12.0
1979-08-03 16:18:13.830 ,6,0,0.,12.0,0.,12.0,0.,12.0,0.,12.0
1979-08-03 16:18:25.830 ,7,0,0.,12.0,0.,12.0,0.,12.0,0.,12.0
1979-08-03 16:18:37.830 ,7,0,0.,12.0,0.,12.0,0.,12.0,0.,12.0
1979-08-03 16:18:49.830 ,7,0,0.,12.0,0.,12.0,0.,12.0,0.,12.0
1979-08-03 16:19:01.830 ,7,0,0.,12.0,0.,12.0,0.,12.0,0.,12.0
1979-08-03 16:19:13.830 ,4,1,0.,12.0,0.,12.0,0.,12.0,0.,12.0
1979-08-03 16:19:25.830 ,4,1,0.,12.0,0.,12.0,0.,12.0,0.,12.0
1979-08-03 16:19:37.830 ,0,1,0.,12.0,0.,12.0,0.,12.0,0.,12.0
1979-08-03 16:19:49.830 ,0,1,0.,12.0,0.,12.0,0.,12.0,0.,12.0
1979-08-03 16:20:01.830 ,3,1,0.,12.0,0.,12.0,0.,12.0,0.,12.0
1979-08-03 16:20:13.830 ,3,1,0.,12.0,0.,12.0,0.,12.0,0.,12.0
1979-08-03 16:20:25.830 ,7,1,0.,12.0,0.,12.0,0.,12.0,0.,12.0
1979-08-03 16:20:37.830 ,7,1,0.,12.0,0.,12.0,0.,12.0,0.,12.0
1979-08-03 16:20:49.830 ,4,1,0.,12.0,0.,12.0,0.,12.0,0.,12.0
1979-08-03 16:21:01.830 ,4,1,0.,12.0,0.,12.0,0.,12.0,0.,12.0
1979-08-03 16:21:13.830 ,0,1,0.,12.0,0.,12.0,0.,12.0,0.,12.0
1979-08-03 16:21:25.830 ,0,1,0.,12.0,0.,12.0,0.,12.0,0.,12.0
1979-08-03 16:21:37.830 ,3,1,0.,12.0,0.,12.0,0.,12.0,0.,12.0
1979-08-03 16:21:49.830 ,3,1,0.,12.0,0.,12.0,0.,12.0,0.,12.0
1979-08-03 16:22:01.830 ,7,1,0.,12.0,0.,12.0,0.,12.0,0.,12.0
1979-08-03 16:22:13.830 ,7,1,0.,12.0,0.,12.0,0.,12.0,0.,12.0
1979-08-03 16:22:25.830 ,4,1,0.,12.0,0.,12.0,0.,12.0,0.,12.0
1979-08-03 16:22:37.830 ,4,1,0.,12.0,0.,12.0,0.,12.0,0.,12.0
1979-08-03 16:22:49.830 ,0,1,0.,12.0,0.,12.0,0.,12.0,0.,12.0
1979-08-03 16:23:01.830 ,0,1,0.,12.0,0.,12.0,0.,12.0,0.,12.0
1979-08-03 16:23:13.830 ,3,1,0.,12.0,0.,12.0,0.,12.0,0.,12.0
1979-08-03 16:23:25.830 ,3,1,0.,12.0,0.,12.0,0.,12.0,0.,12.0
1979-08-03 16:23:37.830 ,7,1,0.,12.0,0.,12.0,0.,12.0,0.,12.0
1979-08-03 16:23:49.830 ,7,1,0.,12.0,0.,12.0,0.,12.0,0.,12.0
1979-08-03 16:24:01.830 ,4,1,0.,12.0,0.,12.0,0.,12.0,0.,12.0
1979-08-03 16:24:13.830 ,4,1,0.,12.0,0.,12.0,0.,12.0,0.,12.0
1979-08-03 16:24:25.830 ,0,1,0.,12.0,0.,12.0,0.,12.0,0.,12.0
1979-08-03 16:24:37.830 ,0,1,1.,12.0,0.,12.0,0.,12.0,0.,12.0
1979-08-03 16:24:49.830 ,3,1,0.,12.0,0.,12.0,0.,12.0,0.,12.0
1979-08-03 16:25:01.830 ,3,1,0.,12.0,0.,12.0,0.,12.0,0.,12.0
1979-08-03 16:25:13.830 ,7,1,0.,12.0,0.,12.0,0.,12.0,0.,12.0
1979-08-03 16:25:25.830 ,7,1,0.,12.0,0.,12.0,0.,12.0,0.,12.0
1979-08-03 16:25:37.830 ,4,1,0.,12.0,0.,12.0,0.,12.0,0.,12.0
1979-08-03 16:25:49.830 ,4,1,0.,12.0,0.,12.0,0.,12.0,0.,12.0
1979-08-03 16:26:01.830 ,0,1,0.,12.0,0.,12.0,0.,12.0,0.,12.0
1979-08-03 16:26:13.830 ,0,1,0.,12.0,0.,12.0,0.,12.0,0.,12.0
1979-08-03 16:26:25.830 ,3,1,0.,12.0,0.,12.0,0.,12.0,0.,12.0
1979-08-03 16:26:37.830 ,3,1,0.,12.0,0.,12.0,0.,12.0,0.,12.0
1979-08-03 16:26:49.830 ,7,1,0.,12.0,0.,12.0,0.,12.0,0.,12.0
1979-08-03 16:27:01.830 ,7,1,0.,12.0,0.,12.0,0.,12.0,0.,12.0
1979-08-03 16:27:13.830 ,4,1,0.,12.0,0.,12.0,0.,12.0,0.,12.0
1979-08-03 16:27:25.830 ,4,1,0.,12.0,0.,12.0,0.,12.0,0.,12.0
1979-08-03 16:27:37.830 ,0,1,0.,12.0,0.,12.0,0.,12.0,0.,12.0
1979-08-03 16:27:49.830 ,0,1,0.,12.0,0.,12.0,0.,12.0,0.,12.0
1979-08-03 16:28:01.830 ,3,1,0.,12.0,0.,12.0,0.,12.0,0.,12.0
1979-08-03 16:28:13.830 ,3,1,0.,12.0,0.,12.0,0.,12.0,0.,12.0
1979-08-03 16:28:25.830 ,7,1,0.,12.0,0.,12.0,0.,12.0,0.,12.0
1979-08-03 16:28:37.830 ,7,1,0.,12.0,0.,12.0,0.,12.0,0.,12.0
1979-08-03 16:28:49.830 ,4,1,0.,12.0,0.,12.0,0.,12.0,0.,12.0
1979-08-03 16:29:01.830 ,4,1,0.,12.0,0.,12.0,0.,12.0,0.,12.0
1979-08-03 16:29:13.830 ,0,1,0.,12.0,0.,12.0,0.,12.0,0.,12.0
1979-08-03 16:29:25.830 ,0,1,0.,12.0,0.,12.0,0.,12.0,0.,12.0
1979-08-03 16:29:37.830 ,0,0,1.,12.0,0.,12.0,0.,12.0,0.,12.0
1979-08-03 16:29:49.830 ,0,0,0.,12.0,0.,12.0,0.,12.0,0.,12.0
1979-08-03 16:30:01.830 ,0,0,0.,12.0,0.,12.0,0.,12.0,0.,12.0
1979-08-03 16:30:13.830 ,0,0,0.,12.0,0.,12.0,0.,12.0,0.,12.0
1979-08-03 16:30:25.830 ,5,1,0.,12.0,0.,12.0,0.,12.0,0.,12.0
1979-08-03 16:30:37.830 ,5,1,0.,12.0,0.,12.0,0.,12.0,0.,12.0
1979-08-03 16:30:49.830 ,5,0,0.,12.0,0.,12.0,0.,12.0,0.,12.0
1979-08-03 16:31:01.830 ,5,0,0.,12.0,0.,12.0,0.,12.0,0.,12.0